{"data":{"norad_id":68365,"epoch":"2026-09-19T08:57:59.483232Z","epoch_age_seconds":169502,"freshness":"FRESH","line1":"1 68365U 26061F   26262.37360513  .00002189  00000+0  10501-3 0  9998","line2":"2 68365  82.2912 278.6490 0000470 149.8597 210.2664 15.18414345 27707","mean_motion":15.18414345,"eccentricity":4.7e-5,"inclination_deg":82.2912,"raan_deg":278.649,"arg_perigee_deg":149.8597,"mean_anomaly_deg":210.2664,"bstar":0.00010501,"rev_number":2770,"period_min":94.835774223405,"perigee_km":510.30855719037,"apogee_km":510.95610150733,"semimajor_km":6888.7693293488,"source":"CELESTRAK","updated_at":"2026-09-20T09:00:24.162660Z"}}